IW2GOB-3 Weather Reports


time (UTC)temp
C
wind
direction
speed
KPH
gust
KPH
rain 1hr
cm
rain 24hr
cm
rain mn
cm
humidity
%
barometer
mb
20260507072526 16 11 3.2 4.8 0.00 0.51 0.00 70 1012.4
20260507071526 16 49 1.6 4.8 0.00 0.51 0.00 70 1012.5
20260507070526 16 35 4.8 4.8 0.00 0.51 0.00 72 1012.5
20260507065526 16 350 1.6 1.6 0.00 0.51 0.00 74 1012.3
20260507064526 15 36 4.8 4.8 0.00 0.51 0.00 74 1012.2
20260507063526 15 352 1.6 4.8 0.00 0.51 0.00 77 1012.1
20260507062526 14 232 0.0 1.6 0.00 0.53 0.00 79 1012.2
20260507061526 13 240 1.6 4.8 0.00 0.53 0.00 80 1012.1
20260507060526 13 332 0.0 3.2 0.00 0.53 0.00 82 1012.0
20260507055526 13 327 1.6 4.8 0.00 0.53 0.00 82 1011.9
20260507054526 13 300 0.0 1.6 0.00 0.53 0.00 83 1011.9
20260507053526 13 300 0.0 1.6 0.00 0.53 0.00 83 1011.9
20260507052526 13 300 0.0 0.0 0.00 0.53 0.00 83 1011.8
20260507051526 12 295 1.6 3.2 0.00 0.53 0.00 83 1011.6
20260507050526 12 319 0.0 1.6 0.00 0.53 0.00 84 1011.4
20260507045526 12 319 0.0 3.2 0.00 0.53 0.00 84 1011.3
20260507044526 12 319 0.0 0.0 0.00 0.53 0.00 84 1011.1
20260507043526 12 329 1.6 3.2 0.00 0.53 0.00 84 1011.0
20260507042526 12 329 0.0 1.6 0.00 0.56 0.00 84 1011.0
20260507041526 12 13 1.6 3.2 0.00 0.58 0.00 84 1010.8
20260507040526 12 355 1.6 3.2 0.00 0.71 0.00 84 1010.7
20260507035526 12 333 1.6 4.8 0.00 0.84 0.00 84 1010.6
20260507034526 12 329 1.6 3.2 0.00 0.91 0.00 84 1010.6
20260507033526 12 330 1.6 4.8 0.00 0.97 0.00 84 1010.6
20260507032526 12 5 1.6 3.2 0.00 1.02 0.00 84 1010.5
20260507031526 12 350 1.6 4.8 0.00 1.04 0.00 83 1010.6
20260507030526 12 14 1.6 4.8 0.00 1.07 0.00 84 1010.5
20260507025526 12 319 4.8 8.0 0.00 1.09 0.00 83 1010.6
20260507024526 12 324 3.2 4.8 0.00 1.09 0.00 83 1010.5
20260507023526 12 336 1.6 3.2 0.00 1.12 0.00 83 1010.4
20260507022526 12 323 1.6 3.2 0.00 1.14 0.00 83 1010.5
20260507021526 13 346 1.6 3.2 0.00 1.17 0.00 83 1010.4
20260507020526 13 337 3.2 3.2 0.00 1.19 0.00 82 1010.4
20260507015526 13 351 1.6 4.8 0.00 1.22 0.00 82 1010.3
20260507014526 13 307 3.2 3.2 0.00 1.22 0.00 82 1010.3
20260507013525 13 304 3.2 4.8 0.00 1.22 0.00 81 1010.2
20260507012525 13 317 3.2 4.8 0.00 1.22 0.00 81 1010.3
20260507011525 13 320 4.8 4.8 0.00 1.22 0.00 80 1010.1
20260507010525 13 331 8.0 11.3 0.00 1.22 0.00 80 1010.2
20260507005525 13 319 11.3 16.1 0.00 1.22 0.00 79 1010.2
20260507004525 13 330 4.8 8.0 0.00 1.22 0.00 78 1010.1
20260507003525 13 327 4.8 8.0 0.00 1.22 0.00 78 1010.1
20260507002525 13 338 4.8 8.0 0.00 1.22 0.00 79 1010.2
20260507001525 13 326 3.2 8.0 0.00 1.22 0.00 79 1010.2
20260507000525 13 331 3.2 4.8 0.00 1.22 0.00 80 1010.3
20260506235525 13 335 4.8 4.8 0.00 1.22 0.00 80 1010.3
20260506234525 13 324 1.6 4.8 0.00 1.22 0.00 80 1010.2
20260506233525 13 326 4.8 4.8 0.00 1.22 0.00 81 1010.1
20260506232525 13 324 1.6 4.8 0.00 1.22 0.00 81 1010.0
20260506231525 13 338 1.6 4.8 0.00 1.22 0.00 82 1010.0
20260506230525 13 328 1.6 4.8 0.00 1.22 0.00 82 1009.8
20260506225525 13 304 1.6 1.6 0.00 1.22 0.00 82 1009.7
20260506224525 13 265 0.0 1.6 0.00 1.22 0.00 82 1009.7
20260506223525 13 265 1.6 1.6 0.00 1.22 0.00 81 1009.7
20260506222525 13 265 0.0 0.0 0.00 1.22 0.00 81 1009.8
20260506221525 13 265 1.6 1.6 0.00 1.22 0.00 80 1009.9
20260506220525 13 321 0.0 1.6 0.00 1.22 0.00 80 1009.9
20260506215525 13 323 1.6 3.2 0.00 1.22 1.22 80 1009.8
20260506214525 13 321 0.0 1.6 0.00 1.22 1.22 80 1009.8
20260506213525 13 327 1.6 1.6 0.00 1.22 1.22 80 1009.5
20260506212525 13 16 1.6 1.6 0.00 1.22 1.22 79 1009.7
20260506211525 13 351 1.6 3.2 0.00 1.22 1.22 79 1009.5
20260506210525 13 12 1.6 3.2 0.00 1.22 1.22 79 1009.5
20260506205525 13 0 0.0 4.8 0.00 1.22 1.22 79 1009.5
20260506204525 13 0 0.0 4.8 0.00 1.22 1.22 79 1009.4
20260506203525 13 354 1.6 4.8 0.00 1.22 1.22 79 1009.3
20260506202525 13 5 3.2 4.8 0.00 1.22 1.22 79 1009.3
20260506201525 13 1 3.2 4.8 0.00 1.22 1.22 79 1009.1
20260506200525 13 14 3.2 4.8 0.00 1.22 1.22 79 1009.0
20260506195525 13 352 3.2 4.8 0.00 1.22 1.22 79 1009.0
20260506194525 13 352 4.8 9.7 0.00 1.24 1.22 79 1009.0
20260506193525 14 352 4.8 8.0 0.00 1.24 1.22 79 1009.0
20260506192525 14 333 3.2 4.8 0.00 1.27 1.22 79 1008.5
20260506191526 14 351 4.8 8.0 0.00 1.27 1.22 78 1008.6
20260506190525 14 343 3.2 8.0 0.00 1.27 1.22 78 1008.6
20260506185525 15 356 3.2 4.8 0.00 1.27 1.22 77 1008.4
20260506184525 15 319 3.2 9.7 0.00 1.27 1.22 76 1008.3
20260506183525 15 344 4.8 4.8 0.00 1.27 1.22 76 1008.0
20260506182525 15 19 8.0 8.0 0.00 1.27 1.22 75 1007.7
20260506181525 15 23 8.0 11.3 0.00 1.27 1.22 75 1007.6
20260506180525 16 334 4.8 4.8 0.00 1.27 1.22 74 1007.4
20260506175525 16 24 8.0 11.3 0.00 1.27 1.22 73 1007.1
20260506174525 16 22 4.8 9.7 0.00 1.27 1.22 73 1007.0
20260506173525 16 7 4.8 8.0 0.00 1.27 1.22 73 1006.9
20260506172525 16 0 0.0 11.3 0.00 1.27 1.22 72 1006.7
20260506171525 17 14 8.0 14.5 0.00 1.27 1.22 71 1006.6
20260506170525 17 327 9.7 16.1 0.00 1.27 1.22 70 1006.5
20260506165525 17 359 11.3 20.9 0.00 1.27 1.22 68 1006.2
20260506164525 18 2 12.9 24.1 0.00 1.27 1.22 65 1005.8
20260506163525 21 338 16.1 25.7 0.00 1.27 1.22 56 1005.4
20260506162525 23 276 4.8 9.7 0.00 1.27 1.22 46 1005.1
20260506161525 23 255 9.7 12.9 0.00 1.27 1.22 46 1004.8
20260506160525 23 243 8.0 9.7 0.00 1.27 1.22 47 1004.8
20260506155525 23 228 8.0 9.7 0.00 1.27 1.22 47 1004.8
20260506154525 23 203 4.8 16.1 0.00 1.27 1.22 50 1004.8
20260506153525 22 149 4.8 8.0 0.00 1.27 1.22 58 1004.9
20260506152525 22 87 4.8 8.0 0.00 1.27 1.22 64 1004.9
20260506151525 22 129 12.9 16.1 0.00 1.27 1.22 66 1005.1
20260506150525 22 113 4.8 11.3 0.00 1.27 1.22 67 1005.1
20260506145525 21 100 12.9 20.9 0.00 1.27 1.22 69 1005.2
20260506144525 21 116 11.3 19.3 0.00 1.27 1.22 70 1005.4
20260506143525 21 128 14.5 20.9 0.00 1.27 1.22 69 1005.4
20260506142525 21 105 8.0 9.7 0.00 1.27 1.22 75 1005.4
20260506141525 20 124 9.7 22.5 0.00 1.27 1.22 75 1005.7
20260506140525 20 139 4.8 12.9 0.00 1.27 1.22 75 1006.0
20260506135525 20 103 4.8 8.0 0.00 1.27 1.22 74 1006.2
20260506134525 20 136 8.0 14.5 0.00 1.27 1.22 73 1006.3
20260506133525 20 126 8.0 11.3 0.00 1.27 1.22 74 1006.4
20260506132525 20 115 9.7 16.1 0.00 1.27 1.22 75 1006.4
20260506131525 20 120 11.3 22.5 0.00 1.30 1.22 75 1006.6
20260506130525 20 128 11.3 19.3 0.00 1.30 1.22 76 1006.7
20260506125525 20 128 9.7 11.3 0.00 1.30 1.22 76 1006.8
20260506124525 20 143 11.3 19.3 0.00 1.30 1.22 76 1006.9
20260506123525 20 85 8.0 14.5 0.00 1.30 1.22 77 1006.8
20260506122524 19 144 11.3 19.3 0.00 1.30 1.22 77 1006.8
20260506121524 18 148 8.0 9.7 0.00 1.30 1.22 82 1007.0
20260506120524 18 122 11.3 14.5 0.00 1.30 1.22 83 1007.2
20260506115525 17 135 12.9 20.9 0.00 1.30 1.22 86 1007.1
20260506114524 17 100 9.7 14.5 0.00 1.30 1.22 86 1007.2
20260506113524 17 85 8.0 11.3 0.00 1.30 1.22 88 1007.3
20260506112524 17 105 9.7 12.9 0.00 1.30 1.22 89 1007.4
20260506111524 17 103 8.0 12.9 0.00 1.30 1.22 89 1007.5
20260506110524 17 122 9.7 19.3 0.00 1.30 1.22 90 1007.5
20260506105524 17 90 11.3 16.1 0.00 1.30 1.22 91 1007.5
20260506104524 16 124 12.9 19.3 0.00 1.30 1.22 92 1007.6
20260506103524 16 109 12.9 27.4 0.00 1.30 1.22 93 1007.5
20260506102524 16 111 11.3 32.2 0.00 1.30 1.22 94 1007.6
20260506101524 16 100 11.3 16.1 0.00 1.30 1.22 95 1007.6
20260506100524 15 119 12.9 20.9 0.00 1.30 1.22 95 1007.7
20260506095524 15 126 11.3 19.3 0.00 1.30 1.22 95 1007.6
20260506094524 15 102 11.3 16.1 0.00 1.30 1.22 95 1007.7
20260506093524 15 106 8.0 8.0 0.10 1.30 1.22 95 1007.5
20260506092524 15 126 8.0 11.3 0.30 1.30 1.22 95 1007.6
20260506091524 15 105 8.0 12.9 0.36 1.30 1.22 95 1007.4
20260506090524 14 72 4.8 12.9 0.41 1.30 1.22 95 1007.2
20260506085524 14 94 12.9 19.3 0.48 1.30 1.22 95 1007.7
20260506084525 14 94 11.3 12.9 0.51 1.30 1.22 95 1007.7
20260506083524 14 110 9.7 12.9 0.41 1.19 1.12 95 1008.4
20260506082524 13 145 4.8 11.3 0.20 0.99 0.91 95 1008.3
20260506081524 13 105 4.8 9.7 0.15 0.94 0.86 95 1007.9
20260506080524 13 102 8.0 11.3 0.10 0.91 0.81 95 1007.6
20260506073524 14 97 9.7 16.1 0.00 0.86 0.71 95 1007.8